Time,TemperatureF,DewpointF,PressureIn,WindDirection,WindDirectionDegrees,WindSpeedMPH,WindSpeedGustMPH,Humidity,HourlyPrecipIn,Conditions,Clouds,dailyrainin,SoftwareType,DateUTC
2013-01-13 00:23:00,43.0,43.0,-100.00,WNW,300,1.0,2.0,100,-99.99,,,-99.99,,2013-01-13 05:23:00,
2013-01-13 00:32:00,42.0,42.0,-100.00,WNW,300,0.0,2.0,100,-99.99,,,-99.99,,2013-01-13 05:32:00,
2013-01-13 00:42:00,43.0,43.0,-100.00,NNW,345,1.0,2.0,100,-99.99,,,-99.99,,2013-01-13 05:42:00,
2013-01-13 00:52:00,42.0,42.0,-100.00,NW,325,1.0,3.0,100,-99.99,,,-99.99,,2013-01-13 05:52:00,
2013-01-13 01:03:00,43.0,43.0,-100.00,NNW,345,2.0,3.0,100,-99.99,,,-99.99,,2013-01-13 06:03:00,
2013-01-13 01:12:00,43.0,43.0,-100.00,NW,325,0.0,1.0,100,-99.99,,,-99.99,,2013-01-13 06:12:00,
2013-01-13 01:22:00,43.0,43.0,-100.00,North,350,1.0,1.0,100,-99.99,,,-99.99,,2013-01-13 06:22:00,
2013-01-13 01:32:00,42.0,42.0,-100.00,WNW,300,0.0,0.0,100,-99.99,,,-99.99,,2013-01-13 06:32:00,
2013-01-13 01:42:00,42.0,42.0,-100.00,WSW,255,0.0,1.0,100,-99.99,,,-99.99,,2013-01-13 06:42:00,
2013-01-13 01:52:00,42.0,42.0,-100.00,NNW,345,0.0,1.0,99,-99.99,,,-99.99,,2013-01-13 06:52:00,
2013-01-13 02:02:00,42.0,42.0,-100.00,ESE,120,0.0,0.0,100,-99.99,,,-99.99,,2013-01-13 07:02:00,
2013-01-13 02:12:00,42.0,42.0,-100.00,South,180,0.0,1.0,100,-99.99,,,-99.99,,2013-01-13 07:12:00,
2013-01-13 02:22:00,42.0,41.0,-100.00,SSE,165,1.0,2.0,93,-99.99,,,-99.99,,2013-01-13 07:22:00,
2013-01-13 02:32:00,43.0,43.0,-100.00,NW,315,0.0,2.0,100,-99.99,,,-99.99,,2013-01-13 07:32:00,
2013-01-13 02:42:00,42.0,42.0,-100.00,SW,225,0.0,1.0,100,-99.99,,,-99.99,,2013-01-13 07:42:00,
2013-01-13 02:52:00,42.0,42.0,-100.00,South,190,0.0,1.0,100,-99.99,,,-99.99,,2013-01-13 07:52:00,
2013-01-13 03:02:00,42.0,42.0,-100.00,SSW,195,0.0,1.0,100,-99.99,,,-99.99,,2013-01-13 08:02:00,
2013-01-13 03:12:00,42.0,42.0,-100.00,SW,230,0.0,1.0,100,-99.99,,,-99.99,,2013-01-13 08:12:00,
2013-01-13 03:22:00,42.0,42.0,-100.00,SW,230,0.0,1.0,100,-99.99,,,-99.99,,2013-01-13 08:22:00,
2013-01-13 03:52:00,42.0,42.0,-100.00,SSE,155,1.0,2.0,99,-99.99,,,-99.99,,2013-01-13 08:52:00,
2013-01-13 04:02:00,42.0,42.0,-100.00,South,190,1.0,1.0,99,-99.99,,,-99.99,,2013-01-13 09:02:00,
2013-01-13 04:12:00,42.0,42.0,-100.00,South,185,1.0,2.0,100,-99.99,,,-99.99,,2013-01-13 09:12:00,
2013-01-13 04:22:00,42.0,42.0,-100.00,North,350,0.0,1.0,99,-99.99,,,-99.99,,2013-01-13 09:22:00,
2013-01-13 04:32:00,42.0,42.0,-100.00,SSW,205,0.0,1.0,99,-99.99,,,-99.99,,2013-01-13 09:32:00,
2013-01-13 04:42:00,42.0,42.0,-100.00,NNW,340,0.0,1.0,100,-99.99,,,-99.99,,2013-01-13 09:42:00,
2013-01-13 04:52:00,42.0,42.0,-100.00,East,85,0.0,1.0,100,-99.99,,,-99.99,,2013-01-13 09:52:00,
2013-01-13 05:03:00,42.0,42.0,-100.00,East,85,0.0,1.0,100,-99.99,,,-99.99,,2013-01-13 10:03:00,
2013-01-13 05:12:00,42.0,42.0,-100.00,WSW,255,0.0,2.0,99,-99.99,,,-99.99,,2013-01-13 10:12:00,
2013-01-13 05:22:00,42.0,42.0,-100.00,SE,135,1.0,2.0,100,-99.99,,,-99.99,,2013-01-13 10:22:00,
2013-01-13 05:32:00,42.0,42.0,-100.00,SSE,165,1.0,2.0,100,-99.99,,,-99.99,,2013-01-13 10:32:00,
2013-01-13 05:42:00,42.0,42.0,-100.00,NW,315,0.0,1.0,100,-99.99,,,-99.99,,2013-01-13 10:42:00,
2013-01-13 05:52:00,42.0,42.0,-100.00,ENE,70,0.0,2.0,100,-99.99,,,-99.99,,2013-01-13 10:52:00,
2013-01-13 08:12:00,43.0,43.0,-100.00,SSE,165,1.0,3.0,100,-99.99,,,-99.99,,2013-01-13 13:12:00,
2013-01-13 08:22:00,43.0,43.0,-100.00,WNW,285,0.0,2.0,100,-99.99,,,-99.99,,2013-01-13 13:22:00,
2013-01-13 08:33:00,43.0,43.0,-100.00,SW,215,0.0,3.0,100,-99.99,,,-99.99,,2013-01-13 13:33:00,
2013-01-13 08:42:00,43.0,43.0,-100.00,SW,230,1.0,2.0,99,-99.99,,,-99.99,,2013-01-13 13:42:00,
2013-01-13 08:53:00,43.0,43.0,-100.00,WSW,250,0.0,3.0,99,-99.99,,,-99.99,,2013-01-13 13:53:00,
2013-01-13 09:03:00,44.0,44.0,-100.00,SW,230,0.0,3.0,100,-99.99,,,-99.99,,2013-01-13 14:03:00,
2013-01-13 09:13:00,44.0,44.0,-100.00,North,0,2.0,3.0,100,-99.99,,,-99.99,,2013-01-13 14:13:00,
2013-01-13 09:22:00,44.0,44.0,-100.00,NNW,335,1.0,5.0,100,-99.99,,,-99.99,,2013-01-13 14:22:00,
2013-01-13 09:33:00,44.0,44.0,-100.00,NNW,340,1.0,5.0,100,-99.99,,,-99.99,,2013-01-13 14:33:00,
2013-01-13 09:43:00,44.0,44.0,-100.00,WSW,255,1.0,3.0,100,-99.99,,,-99.99,,2013-01-13 14:43:00,
2013-01-13 09:53:00,44.0,44.0,-100.00,WNW,290,1.0,3.0,100,-99.99,,,-99.99,,2013-01-13 14:53:00,
2013-01-13 10:03:00,44.0,44.0,-100.00,WSW,245,1.0,7.0,99,-99.99,,,-99.99,,2013-01-13 15:03:00,
2013-01-13 10:13:00,45.0,45.0,-100.00,ENE,70,1.0,3.0,100,-99.99,,,-99.99,,2013-01-13 15:13:00,
2013-01-13 10:23:00,45.0,45.0,-100.00,SSE,165,2.0,6.0,100,-99.99,,,-99.99,,2013-01-13 15:23:00,
2013-01-13 10:33:00,45.0,45.0,-100.00,WNW,285,1.0,5.0,100,-99.99,,,-99.99,,2013-01-13 15:33:00,
2013-01-13 10:43:00,46.0,46.0,-100.00,North,10,1.0,3.0,100,-99.99,,,-99.99,,2013-01-13 15:43:00,
2013-01-13 10:52:00,46.0,46.0,-100.00,NNW,345,1.0,3.0,100,-99.99,,,-99.99,,2013-01-13 15:52:00,
2013-01-13 11:04:00,46.0,46.0,-100.00,NNW,345,1.0,3.0,100,-99.99,,,-99.99,,2013-01-13 16:04:00,
2013-01-13 11:13:00,46.0,46.0,-100.00,SSW,210,2.0,5.0,100,-99.99,,,-99.99,,2013-01-13 16:13:00,
2013-01-13 11:23:00,46.0,46.0,-100.00,SSW,210,2.0,5.0,100,-99.99,,,-99.99,,2013-01-13 16:23:00,
2013-01-13 11:33:00,47.0,47.0,-100.00,NNW,340,2.0,6.0,100,-99.99,,,-99.99,,2013-01-13 16:33:00,
2013-01-13 11:43:00,47.0,47.0,-100.00,WNW,295,1.0,3.0,100,-99.99,,,-99.99,,2013-01-13 16:43:00,
2013-01-13 11:53:00,47.0,47.0,-100.00,SSW,195,2.0,6.0,100,-99.99,,,-99.99,,2013-01-13 16:53:00,
2013-01-13 12:03:00,47.0,47.0,-100.00,South,180,2.0,6.0,100,-99.99,,,-99.99,,2013-01-13 17:03:00,
2013-01-13 12:13:00,48.0,48.0,-100.00,SW,220,2.0,6.0,100,-99.99,,,-99.99,,2013-01-13 17:13:00,
2013-01-13 12:22:00,48.0,48.0,-100.00,SW,220,2.0,6.0,100,-99.99,,,-99.99,,2013-01-13 17:22:00,
2013-01-13 12:33:00,49.0,49.0,-100.00,West,265,1.0,5.0,100,-99.99,,,-99.99,,2013-01-13 17:33:00,
2013-01-13 12:43:00,49.0,49.0,-100.00,South,180,2.0,6.0,100,-99.99,,,-99.99,,2013-01-13 17:43:00,
2013-01-13 12:53:00,49.0,49.0,-100.00,ENE,70,1.0,5.0,100,-99.99,,,-99.99,,2013-01-13 17:53:00,
2013-01-13 13:03:00,49.0,49.0,-100.00,West,265,2.0,8.0,100,-99.99,,,-99.99,,2013-01-13 18:03:00,
2013-01-13 13:12:00,49.0,49.0,-100.00,WSW,245,3.0,7.0,100,-99.99,,,-99.99,,2013-01-13 18:12:00,
2013-01-13 13:23:00,49.0,49.0,-100.00,East,90,1.0,8.0,100,-99.99,,,-99.99,,2013-01-13 18:23:00,
2013-01-13 13:33:00,50.0,50.0,-100.00,SE,135,2.0,6.0,100,-99.99,,,-99.99,,2013-01-13 18:33:00,
2013-01-13 13:43:00,50.0,50.0,-100.00,SW,230,2.0,6.0,99,-99.99,,,-99.99,,2013-01-13 18:43:00,
2013-01-13 13:53:00,50.0,50.0,-100.00,WNW,300,1.0,5.0,100,-99.99,,,-99.99,,2013-01-13 18:53:00,
2013-01-13 14:03:00,50.0,50.0,-100.00,WNW,290,2.0,7.0,100,-99.99,,,-99.99,,2013-01-13 19:03:00,
2013-01-13 14:12:00,50.0,50.0,-100.00,WNW,290,2.0,8.0,100,-99.99,,,-99.99,,2013-01-13 19:12:00,
2013-01-13 14:23:00,51.0,51.0,-100.00,West,275,2.0,7.0,100,-99.99,,,-99.99,,2013-01-13 19:23:00,
2013-01-13 14:53:00,51.0,51.0,-100.00,WNW,285,2.0,7.0,100,-99.99,,,-99.99,,2013-01-13 19:53:00,
2013-01-13 15:30:00,52.0,52.0,-100.00,SW,215,2.0,7.0,100,-99.99,,,-99.99,,2013-01-13 20:30:00,
2013-01-13 15:33:00,52.0,52.0,-100.00,WNW,300,1.0,9.0,100,-99.99,,,-99.99,,2013-01-13 20:33:00,
2013-01-13 16:03:00,52.0,52.0,-100.00,SW,215,2.0,10.0,100,-99.99,,,-99.99,,2013-01-13 21:03:00,
2013-01-13 16:13:00,52.0,52.0,-100.00,SW,215,2.0,7.0,100,-99.99,,,-99.99,,2013-01-13 21:13:00,
2013-01-13 16:23:00,52.0,52.0,-100.00,SW,215,2.0,7.0,100,-99.99,,,-99.99,,2013-01-13 21:23:00,